Time,TemperatureF,DewpointF,PressureIn,WindDirection,WindDirectionDegrees,WindSpeedMPH,WindSpeedGustMPH,Humidity,HourlyPrecipIn,Conditions,Clouds,dailyrainin,SolarRadiationWatts/m^2,SoftwareType,DateUTC
2013-01-16 00:32:00,36.0,14.0,-100.00,WNW,302,1.0,2.0,40,-99.99,,,-99.99,0.000000,,2013-01-16 08:32:00,
2013-01-16 00:42:00,35.0,14.0,-100.00,WNW,290,1.0,3.0,42,-99.99,,,-99.99,0.000000,,2013-01-16 08:42:00,
2013-01-16 00:52:00,35.0,14.0,-100.00,West,274,1.0,3.0,42,-99.99,,,-99.99,0.000000,,2013-01-16 08:52:00,
2013-01-16 01:02:00,34.0,14.0,-100.00,NW,311,1.0,3.0,44,-99.99,,,-99.99,0.000000,,2013-01-16 09:02:00,
2013-01-16 01:11:00,34.0,14.0,-100.00,NW,320,0.0,3.0,43,-99.99,,,-99.99,0.000000,,2013-01-16 09:11:00,
2013-01-16 01:22:00,34.0,14.0,-100.00,NW,320,0.0,3.0,43,-99.99,,,-99.99,0.000000,,2013-01-16 09:22:00,
2013-01-16 01:32:00,34.0,14.0,-100.00,ESE,113,1.0,2.0,44,-99.99,,,-99.99,0.000000,,2013-01-16 09:32:00,
2013-01-16 01:42:00,33.0,14.0,-100.00,WSW,243,1.0,4.0,46,-99.99,,,-99.99,0.000000,,2013-01-16 09:42:00,
2013-01-16 01:52:00,32.0,14.0,-100.00,West,278,2.0,4.0,48,-99.99,,,-99.99,0.000000,,2013-01-16 09:52:00,
2013-01-16 02:02:00,32.0,14.0,-100.00,West,278,2.0,4.0,48,-99.99,,,-99.99,0.000000,,2013-01-16 10:02:00,
2013-01-16 02:12:00,32.0,14.0,-100.00,SE,136,1.0,3.0,48,-99.99,,,-99.99,0.000000,,2013-01-16 10:12:00,
2013-01-16 02:22:00,32.0,14.0,-100.00,SSE,150,0.0,1.0,47,-99.99,,,-99.99,0.000000,,2013-01-16 10:22:00,
2013-01-16 02:32:00,31.0,14.0,-100.00,WSW,241,1.0,3.0,49,-99.99,,,-99.99,0.000000,,2013-01-16 10:32:00,
2013-01-16 02:42:00,31.0,15.0,-100.00,NW,323,1.0,3.0,50,-99.99,,,-99.99,0.000000,,2013-01-16 10:42:00,
2013-01-16 02:52:00,32.0,14.0,-100.00,NE,39,1.0,6.0,47,-99.99,,,-99.99,0.000000,,2013-01-16 10:52:00,
2013-01-16 03:02:00,32.0,14.0,-100.00,NE,39,1.0,6.0,47,-99.99,,,-99.99,0.000000,,2013-01-16 11:02:00,
2013-01-16 03:12:00,33.0,15.0,-100.00,NW,304,2.0,4.0,46,-99.99,,,-99.99,0.000000,,2013-01-16 11:12:00,
2013-01-16 03:22:00,34.0,15.0,-100.00,WNW,293,1.0,4.0,45,-99.99,,,-99.99,0.000000,,2013-01-16 11:22:00,
2013-01-16 03:32:00,34.0,15.0,-100.00,WNW,293,1.0,4.0,45,-99.99,,,-99.99,0.000000,,2013-01-16 11:32:00,
2013-01-16 03:42:00,34.0,15.0,-100.00,West,272,4.0,6.0,45,-99.99,,,-99.99,0.000000,,2013-01-16 11:42:00,
2013-01-16 03:52:00,34.0,15.0,-100.00,West,272,4.0,6.0,45,-99.99,,,-99.99,0.000000,,2013-01-16 11:52:00,
2013-01-16 04:02:00,34.0,15.0,-100.00,West,280,1.0,3.0,45,-99.99,,,-99.99,0.000000,,2013-01-16 12:02:00,
2013-01-16 04:10:00,33.0,15.0,-100.00,North,356,2.0,4.0,48,-99.99,,,-99.99,0.000000,,2013-01-16 12:10:00,
2013-01-16 04:12:00,34.0,15.0,-100.00,West,280,3.0,6.0,45,-99.99,,,-99.99,0.000000,,2013-01-16 12:12:00,
2013-01-16 04:22:00,34.0,16.0,-100.00,NW,318,1.0,5.0,46,-99.99,,,-99.99,0.000000,,2013-01-16 12:22:00,
2013-01-16 04:33:00,34.0,16.0,-100.00,NW,318,1.0,5.0,46,-99.99,,,-99.99,0.000000,,2013-01-16 12:33:00,
2013-01-16 04:42:00,33.0,16.0,-100.00,WNW,294,2.0,3.0,49,-99.99,,,-99.99,0.000000,,2013-01-16 12:42:00,
2013-01-16 04:50:00,32.0,15.0,-100.00,West,279,3.0,6.0,50,-99.99,,,-99.99,0.000000,,2013-01-16 12:50:00,
2013-01-16 04:52:00,33.0,16.0,-100.00,NNW,338,1.0,4.0,48,-99.99,,,-99.99,0.000000,,2013-01-16 12:52:00,
2013-01-16 05:02:00,33.0,15.0,-100.00,North,356,2.0,4.0,48,-99.99,,,-99.99,0.000000,,2013-01-16 13:02:00,
2013-01-16 05:22:00,32.0,15.0,-100.00,WNW,301,2.0,5.0,50,-99.99,,,-99.99,0.000000,,2013-01-16 13:22:00,
2013-01-16 05:33:00,32.0,15.0,-100.00,WNW,301,2.0,5.0,50,-99.99,,,-99.99,0.000000,,2013-01-16 13:33:00,
2013-01-16 05:42:00,32.0,15.0,-100.00,West,279,3.0,6.0,50,-99.99,,,-99.99,0.000000,,2013-01-16 13:42:00,
2013-01-16 06:22:00,34.0,16.0,-100.00,NW,322,3.0,6.0,47,-99.99,,,-99.99,0.000000,,2013-01-16 14:22:00,
2013-01-16 06:30:00,33.0,16.0,-100.00,WNW,303,4.0,7.0,49,-99.99,,,-99.99,0.000000,,2013-01-16 14:30:00,
2013-01-16 06:32:00,33.0,16.0,-100.00,NW,305,3.0,7.0,49,-99.99,,,-99.99,0.000000,,2013-01-16 14:32:00,
2013-01-16 06:42:00,35.0,16.0,-100.00,NW,323,3.0,7.0,46,-99.99,,,-99.99,0.000000,,2013-01-16 14:42:00,
2013-01-16 06:53:00,35.0,16.0,-100.00,NW,323,3.0,7.0,46,-99.99,,,-99.99,0.000000,,2013-01-16 14:53:00,
2013-01-16 07:03:00,34.0,16.0,-100.00,NW,315,2.0,5.0,48,-99.99,,,-99.99,0.000000,,2013-01-16 15:03:00,
2013-01-16 07:12:00,34.0,16.0,-100.00,NW,315,2.0,5.0,48,-99.99,,,-99.99,0.000000,,2013-01-16 15:12:00,
2013-01-16 07:22:00,33.0,16.0,-100.00,WNW,303,4.0,7.0,49,-99.99,,,-99.99,0.000000,,2013-01-16 15:22:00,
2013-01-16 08:03:00,34.0,17.0,-100.00,West,270,1.0,2.0,49,-99.99,,,-99.99,47.000000,,2013-01-16 16:03:00,
2013-01-16 08:12:00,36.0,17.0,-100.00,West,259,2.0,3.0,45,-99.99,,,-99.99,58.000000,,2013-01-16 16:12:00,
2013-01-16 08:22:00,38.0,17.0,-100.00,WSW,251,1.0,2.0,43,-99.99,,,-99.99,58.000000,,2013-01-16 16:22:00,
2013-01-16 08:32:00,38.0,18.0,-100.00,NW,306,3.0,6.0,43,-99.99,,,-99.99,55.000000,,2013-01-16 16:32:00,
2013-01-16 08:42:00,39.0,18.0,-100.00,NW,326,2.0,4.0,42,-99.99,,,-99.99,55.000000,,2013-01-16 16:42:00,
2013-01-16 08:52:00,39.0,18.0,-100.00,NNW,328,3.0,8.0,42,-99.99,,,-99.99,88.000000,,2013-01-16 16:52:00,
2013-01-16 09:02:00,39.0,18.0,-100.00,NW,322,4.0,9.0,42,-99.99,,,-99.99,154.000000,,2013-01-16 17:02:00,
2013-01-16 09:12:00,40.0,19.0,-100.00,NNW,331,4.0,8.0,42,-99.99,,,-99.99,281.000000,,2013-01-16 17:12:00,
2013-01-16 09:22:00,40.0,18.0,-100.00,NW,320,4.0,8.0,41,-99.99,,,-99.99,307.000000,,2013-01-16 17:22:00,
2013-01-16 09:33:00,39.0,18.0,-100.00,NNW,330,4.0,8.0,42,-99.99,,,-99.99,342.000000,,2013-01-16 17:33:00,
2013-01-16 09:43:00,40.0,18.0,-100.00,NNW,327,4.0,8.0,42,-99.99,,,-99.99,370.000000,,2013-01-16 17:43:00,
2013-01-16 09:53:00,40.0,18.0,-100.00,NW,322,4.0,8.0,41,-99.99,,,-99.99,399.000000,,2013-01-16 17:53:00,
2013-01-16 10:02:00,41.0,19.0,-100.00,NW,312,4.0,8.0,40,-99.99,,,-99.99,425.000000,,2013-01-16 18:02:00,
2013-01-16 10:12:00,42.0,19.0,-100.00,NW,316,6.0,12.0,39,-99.99,,,-99.99,451.000000,,2013-01-16 18:12:00,
2013-01-16 10:22:00,43.0,19.0,-100.00,NNW,335,4.0,8.0,38,-99.99,,,-99.99,475.000000,,2013-01-16 18:22:00,
2013-01-16 10:30:00,46.0,20.0,-100.00,NNW,340,5.0,14.0,34,-99.99,,,-99.99,575.000000,,2013-01-16 18:30:00,
2013-01-16 10:33:00,43.0,19.0,-100.00,NNW,334,5.0,11.0,37,-99.99,,,-99.99,497.000000,,2013-01-16 18:33:00,
2013-01-16 10:42:00,43.0,19.0,-100.00,NNW,334,5.0,11.0,37,-99.99,,,-99.99,497.000000,,2013-01-16 18:42:00,
2013-01-16 10:52:00,45.0,19.0,-100.00,NNW,343,5.0,10.0,35,-99.99,,,-99.99,537.000000,,2013-01-16 18:52:00,
2013-01-16 11:12:00,46.0,20.0,-100.00,NNW,340,5.0,14.0,34,-99.99,,,-99.99,575.000000,,2013-01-16 19:12:00,
2013-01-16 11:22:00,46.0,20.0,-100.00,NNW,340,5.0,14.0,34,-99.99,,,-99.99,575.000000,,2013-01-16 19:22:00,
2013-01-16 12:03:00,48.0,19.0,-100.00,NNW,327,5.0,10.0,32,-99.99,,,-99.99,632.000000,,2013-01-16 20:03:00,
2013-01-16 12:12:00,48.0,19.0,-100.00,NNW,341,4.0,8.0,31,-99.99,,,-99.99,635.000000,,2013-01-16 20:12:00,
2013-01-16 12:23:00,49.0,20.0,-100.00,NNW,347,5.0,10.0,31,-99.99,,,-99.99,641.000000,,2013-01-16 20:23:00,
2013-01-16 12:33:00,49.0,19.0,-100.00,North,360,4.0,9.0,30,-99.99,,,-99.99,646.000000,,2013-01-16 20:33:00,
2013-01-16 12:42:00,49.0,19.0,-100.00,North,356,4.0,9.0,30,-99.99,,,-99.99,647.000000,,2013-01-16 20:42:00,
2013-01-16 12:53:00,50.0,19.0,-100.00,North,357,4.0,11.0,30,-99.99,,,-99.99,644.000000,,2013-01-16 20:53:00,
2013-01-16 13:02:00,50.0,20.0,-100.00,NNW,347,4.0,9.0,30,-99.99,,,-99.99,637.000000,,2013-01-16 21:02:00,
2013-01-16 13:12:00,50.0,19.0,-100.00,North,358,4.0,11.0,29,-99.99,,,-99.99,635.000000,,2013-01-16 21:12:00,
2013-01-16 13:22:00,51.0,19.0,-100.00,North,6,5.0,11.0,28,-99.99,,,-99.99,627.000000,,2013-01-16 21:22:00,
2013-01-16 13:33:00,51.0,19.0,-100.00,North,6,5.0,11.0,28,-99.99,,,-99.99,627.000000,,2013-01-16 21:33:00,
2013-01-16 13:42:00,52.0,20.0,-100.00,North,356,3.0,8.0,28,-99.99,,,-99.99,608.000000,,2013-01-16 21:42:00,
2013-01-16 13:52:00,52.0,19.0,-100.00,NNE,13,3.0,9.0,27,-99.99,,,-99.99,595.000000,,2013-01-16 21:52:00,
2013-01-16 14:02:00,52.0,19.0,-100.00,NNW,347,3.0,8.0,27,-99.99,,,-99.99,581.000000,,2013-01-16 22:02:00,
2013-01-16 14:12:00,53.0,20.0,-100.00,North,350,3.0,9.0,27,-99.99,,,-99.99,565.000000,,2013-01-16 22:12:00,
2013-01-16 14:22:00,53.0,19.0,-100.00,North,1,5.0,10.0,26,-99.99,,,-99.99,546.000000,,2013-01-16 22:22:00,
2013-01-16 14:33:00,53.0,19.0,-100.00,North,1,5.0,10.0,26,-99.99,,,-99.99,546.000000,,2013-01-16 22:33:00,
2013-01-16 14:43:00,53.0,19.0,-100.00,North,6,3.0,9.0,26,-99.99,,,-99.99,506.000000,,2013-01-16 22:43:00,
2013-01-16 14:52:00,53.0,19.0,-100.00,North,6,3.0,9.0,26,-99.99,,,-99.99,506.000000,,2013-01-16 22:52:00,
2013-01-16 15:02:00,53.0,19.0,-100.00,North,356,4.0,10.0,26,-99.99,,,-99.99,483.000000,,2013-01-16 23:02:00,
2013-01-16 15:10:00,54.0,20.0,-100.00,NNW,340,4.0,9.0,26,-99.99,,,-99.99,317.000000,,2013-01-16 23:10:00,
2013-01-16 15:12:00,53.0,19.0,-100.00,NNW,348,4.0,9.0,26,-99.99,,,-99.99,459.000000,,2013-01-16 23:12:00,
2013-01-16 15:22:00,54.0,20.0,-100.00,North,352,5.0,11.0,26,-99.99,,,-99.99,404.000000,,2013-01-16 23:22:00,
2013-01-16 15:32:00,54.0,20.0,-100.00,North,352,5.0,11.0,26,-99.99,,,-99.99,404.000000,,2013-01-16 23:32:00,
2013-01-16 15:42:00,54.0,20.0,-100.00,NNW,334,4.0,8.0,26,-99.99,,,-99.99,348.000000,,2013-01-16 23:42:00,
2013-01-16 15:52:00,54.0,20.0,-100.00,NNW,334,4.0,8.0,26,-99.99,,,-99.99,348.000000,,2013-01-16 23:52:00,
2013-01-16 16:02:00,54.0,20.0,-100.00,NNW,340,4.0,9.0,26,-99.99,,,-99.99,317.000000,,2013-01-17 00:02:00,
2013-01-16 16:22:00,54.0,19.0,-100.00,NNW,339,3.0,7.0,25,-99.99,,,-99.99,223.000000,,2013-01-17 00:22:00,
2013-01-16 16:32:00,54.0,19.0,-100.00,NNW,339,3.0,7.0,25,-99.99,,,-99.99,223.000000,,2013-01-17 00:32:00,
2013-01-16 16:42:00,54.0,20.0,-100.00,North,356,3.0,6.0,26,-99.99,,,-99.99,160.000000,,2013-01-17 00:42:00,
2013-01-16 16:52:00,54.0,20.0,-100.00,North,3,2.0,5.0,26,-99.99,,,-99.99,124.000000,,2013-01-17 00:52:00,
2013-01-16 17:02:00,54.0,20.0,-100.00,North,3,2.0,5.0,26,-99.99,,,-99.99,124.000000,,2013-01-17 01:02:00,
2013-01-16 17:12:00,53.0,19.0,-100.00,North,354,2.0,5.0,26,-99.99,,,-99.99,49.000000,,2013-01-17 01:12:00,
2013-01-16 17:20:00,49.0,20.0,-100.00,SW,225,1.0,3.0,32,-99.99,,,-99.99,0.000000,,2013-01-17 01:20:00,
2013-01-16 17:22:00,52.0,19.0,-100.00,West,260,1.0,2.0,27,-99.99,,,-99.99,12.000000,,2013-01-17 01:22:00,
2013-01-16 17:32:00,52.0,19.0,-100.00,West,260,1.0,2.0,27,-99.99,,,-99.99,12.000000,,2013-01-17 01:32:00,
2013-01-16 17:42:00,50.0,20.0,-100.00,SW,235,2.0,3.0,30,-99.99,,,-99.99,7.000000,,2013-01-17 01:42:00,
2013-01-16 17:52:00,49.0,20.0,-100.00,SW,214,2.0,3.0,32,-99.99,,,-99.99,0.000000,,2013-01-17 01:52:00,
2013-01-16 18:02:00,49.0,20.0,-100.00,SW,225,1.0,3.0,32,-99.99,,,-99.99,0.000000,,2013-01-17 02:02:00,
2013-01-16 18:12:00,49.0,20.0,-100.00,SW,225,1.0,3.0,32,-99.99,,,-99.99,0.000000,,2013-01-17 02:12:00,
2013-01-16 19:02:00,47.0,19.0,-100.00,WSW,242,2.0,3.0,32,-99.99,,,-99.99,0.000000,,2013-01-17 03:02:00,
2013-01-16 19:12:00,47.0,19.0,-100.00,SW,236,1.0,3.0,33,-99.99,,,-99.99,0.000000,,2013-01-17 03:12:00,
2013-01-16 19:22:00,46.0,19.0,-100.00,SW,233,1.0,2.0,34,-99.99,,,-99.99,0.000000,,2013-01-17 03:22:00,
2013-01-16 19:32:00,46.0,19.0,-100.00,WSW,249,1.0,2.0,34,-99.99,,,-99.99,0.000000,,2013-01-17 03:32:00,
2013-01-16 19:42:00,45.0,19.0,-100.00,SSW,210,0.0,2.0,36,-99.99,,,-99.99,0.000000,,2013-01-17 03:42:00,
2013-01-16 19:52:00,45.0,19.0,-100.00,SSW,210,0.0,2.0,36,-99.99,,,-99.99,0.000000,,2013-01-17 03:52:00,
2013-01-16 20:02:00,44.0,19.0,-100.00,SW,221,0.0,2.0,37,-99.99,,,-99.99,0.000000,,2013-01-17 04:02:00,
2013-01-16 20:10:00,43.0,19.0,-100.00,WSW,251,3.0,4.0,37,-99.99,,,-99.99,0.000000,,2013-01-17 04:10:00,
2013-01-16 20:12:00,44.0,19.0,-100.00,SW,221,0.0,2.0,37,-99.99,,,-99.99,0.000000,,2013-01-17 04:12:00,
2013-01-16 20:22:00,43.0,19.0,-100.00,SSW,211,2.0,4.0,38,-99.99,,,-99.99,0.000000,,2013-01-17 04:22:00,
2013-01-16 20:32:00,43.0,19.0,-100.00,SSW,211,2.0,4.0,38,-99.99,,,-99.99,0.000000,,2013-01-17 04:32:00,
2013-01-16 20:42:00,43.0,20.0,-100.00,SW,222,2.0,4.0,39,-99.99,,,-99.99,0.000000,,2013-01-17 04:42:00,
2013-01-16 20:52:00,43.0,19.0,-100.00,WSW,251,3.0,4.0,37,-99.99,,,-99.99,0.000000,,2013-01-17 04:52:00,
2013-01-16 21:04:00,43.0,19.0,-100.00,WSW,251,3.0,4.0,37,-99.99,,,-99.99,0.000000,,2013-01-17 05:04:00,
2013-01-16 21:20:00,45.0,18.0,-100.00,WNW,300,2.0,4.0,33,-99.99,,,-99.99,0.000000,,2013-01-17 05:20:00,
2013-01-16 22:02:00,44.0,18.0,-100.00,NW,311,2.0,6.0,35,-99.99,,,-99.99,0.000000,,2013-01-17 06:02:00,
2013-01-16 22:12:00,45.0,18.0,-100.00,WNW,300,2.0,4.0,33,-99.99,,,-99.99,0.000000,,2013-01-17 06:12:00,
2013-01-16 22:20:00,48.0,16.0,-100.00,NNW,342,4.0,11.0,28,-99.99,,,-99.99,0.000000,,2013-01-17 06:20:00,
2013-01-16 22:32:00,46.0,17.0,-100.00,NW,306,2.0,6.0,31,-99.99,,,-99.99,0.000000,,2013-01-17 06:32:00,
2013-01-16 22:42:00,47.0,16.0,-100.00,NNW,341,5.0,12.0,29,-99.99,,,-99.99,0.000000,,2013-01-17 06:42:00,
2013-01-16 22:52:00,48.0,16.0,-100.00,NNW,331,5.0,11.0,28,-99.99,,,-99.99,0.000000,,2013-01-17 06:52:00,
2013-01-16 23:00:00,45.0,15.0,-100.00,WNW,284,1.0,3.0,30,-99.99,,,-99.99,0.000000,,2013-01-17 07:00:00,
2013-01-16 23:02:00,48.0,16.0,-100.00,NNW,335,5.0,11.0,28,-99.99,,,-99.99,0.000000,,2013-01-17 07:02:00,
2013-01-16 23:12:00,48.0,16.0,-100.00,NNW,342,4.0,11.0,28,-99.99,,,-99.99,0.000000,,2013-01-17 07:12:00,
2013-01-16 23:52:00,45.0,15.0,-100.00,WNW,284,1.0,3.0,30,-99.99,,,-99.99,0.000000,,2013-01-17 07:52:00,